Home   Weather   Kleppe   Past weeks

Flag for Norway Past Weather in Kleppe, Norway — Yesterday and Last 2 Weeks

Now
69 °F

Sunny.


Feels Like: 69 °F
Forecast: 56 / 61 °F
Wind: 12 mph from South

Location: Stavanger / Sola

Current Time: Sep 25, 2016 at 5:53:41 PM

Latest Report: Sep 25, 2016 at 5:00 PM


Visibility: 22 mi

Pressure: 29.87 "Hg

Humidity: 49%

Dew Point: 49 °F

Location of KleppeLocation

Past Weather in Kleppe — Graph

°F

Kleppe Temperature Yesterday

Maximum temperature yesterday: 63 °F (at 2:00 PM)
Minimum temperature yesterday: 52 °F (at 2:00 AM)
Average temperature yesterday: 59 °F

High & Low Weather Summary for the Past Weeks

 TemperatureHumidityPressure
High80 °F (Sep 15, 3:00 PM)98% (Sep 20, 4:00 AM)30.24 "Hg (Sep 20, 4:00 AM)
Low52 °F (Sep 24, 2:00 AM)46% (Sep 25, 4:00 PM)29.69 "Hg (Sep 11, 3:00 AM)
Average62 °F78%30.06 "Hg
* Reported Sep 10 4:00 PM — Sep 25 4:00 PM, Kleppe, Weather by CustomWeather, © 2016

Note: Actual official high and low records may vary slightly from our data, if they occured in-between our weather recording intervals... More about our weather records

Advertising

Kleppe Weather History for the Previous 24 Hours

Scroll right to see more
 ConditionsComfort  
Time TempWeatherWind HumidityBarometerVisibility
4:00 PM
Sun, Sep 25
71 °FSunny.15 mph46%29.87 "Hg19 mi
3:00 PM71 °FSunny.15 mph51%29.87 "Hg14 mi
2:00 PM71 °FSunny.12 mph52%29.88 "Hg19 mi
1:00 PM70 °FSunny.10 mph58%29.89 "Hg17 mi
12:00 PM69 °FSunny.12 mph62%29.90 "Hg14 mi
11:00 AM68 °FSunny.9 mph67%29.91 "Hg17 mi
10:00 AM67 °FPassing clouds.10 mph68%29.91 "Hg12 mi
9:00 AM65 °FPassing clouds.9 mph74%29.90 "Hg13 mi
8:00 AM65 °FScattered clouds.10 mph76%29.90 "Hg12 mi
7:00 AM64 °FClear.9 mph79%29.90 "Hg11 mi
6:00 AM63 °FOvercast.9 mph80%29.90 "Hg12 mi
5:00 AM63 °FPassing clouds.10 mph81%29.91 "Hg11 mi
4:00 AM62 °FClear.9 mph81%29.92 "Hg15 mi
3:00 AM62 °FClear.9 mph80%29.93 "Hg16 mi
2:00 AM62 °FClear.10 mph79%29.93 "Hg17 mi
1:00 AM62 °FClear.8 mph82%29.95 "Hg13 mi
12:00 AM61 °FClear.8 mph81%29.97 "Hg14 mi
11:00 PM
Sat, Sep 24
62 °FPassing clouds.8 mph84%29.98 "Hg11 mi
10:00 PM62 °FOvercast.9 mph84%29.98 "Hg11 mi
9:00 PM62 °FPassing clouds.12 mph81%29.96 "Hg11 mi
8:00 PM61 °FPassing clouds.9 mph82%29.97 "Hg12 mi
7:00 PM61 °FOvercast.9 mph80%29.97 "Hg12 mi
6:00 PM62 °FPartly sunny.9 mph77%29.96 "Hg11 mi
5:00 PM62 °FPassing clouds.10 mph77%29.96 "Hg14 mi
Weather by CustomWeather, © 2016

See weather overviewHow to use our weather pages